Weather History for KPUB - May, 2012

Change the Weather History Date:

Thursday, May 3, 2012

  Actual Average Record
Temperature  
Mean Temperature 66 °F 56 °F  
Max Temperature 84 °F 73 °F 92 °F (1947)
Min Temperature 47 °F 40 °F 23 °F (2011)
Degree Days  
Heating Degree Days 0 9  
Month to date heating degree days 5 28  
Since 1 July heating degree days 4925 5468  
Cooling Degree Days 1 0  
Month to date cooling degree days 1 0  
Year to date cooling degree days 10 2  
Growing Degree Days 16 (Base 50)    
Moisture  
Dew Point 38 °F    
Average Humidity 40    
Maximum Humidity 61    
Minimum Humidity 18    
Precipitation  
Precipitation 0.00 in 0.06 in 1.39 in (1933)
Month to date precipitation 0.00 0.16  
Year to date precipitation 1.54 3.14  
Snow  
Snow 0.00 in 0.00 in 6.40 in (1990)
Month to date snowfall 0.0 0.1  
Since 1 July snowfall 32.1 31.4  
Snow Depth 0.00 in    
Sea Level Pressure  
Sea Level Pressure 29.77 in    
Wind  
Wind Speed 10 mph (SE)    
Max Wind Speed 29 mph    
Max Gust Speed 38 mph    
Visibility 10 miles    
Events      
T = Trace of Precipitation, MM = Missing Value Source: NWS Daily Summary

Daily Weather History Graph

Daily Weather History Graph

Search for Another Location

Airport or City:

Trip Planner

Search our weather history database for the weather conditions in past years. The results will help you decide how hot, cold, wet, or windy it might be!

Date:

Astronomy

May. 03, 2012 Rise Set
Actual Time 5:58 AM MDT 7:51 PM MDT
Civil Twilight 5:29 AM MDT 8:20 PM MDT
Nautical Twilight 4:54 AM MDT 8:55 PM MDT
Astronomical Twilight 4:17 AM MDT 9:33 PM MDT
Moon 5:20 PM MDT (5/3) 4:01 AM MDT (5/3)
Length of Visible Light 14h 50m
Length of Day
13h 53m
Waxing Gibbous, 91% of the Moon is Illuminated
May 3
Waxing Gibbous
May 5
Full
May 12
Last Quarter
May 20
New
May 28
First Quarter

Hourly Weather History & Observations

Time (MDT) Temp. Dew Point Humidity Pressure Visibility Wind Dir Wind Speed Gust Speed Precip Events Conditions
12:53 AM 62.1 °F 39.0 °F 43% 29.71 in 10.0 mi Calm Calm - N/A   Clear
1:53 AM 61.0 °F 37.9 °F 42% 29.71 in 10.0 mi North 23.0 mph 28.8 mph N/A   Clear
2:53 AM 57.9 °F 39.0 °F 49% 29.74 in 10.0 mi NNE 8.1 mph - N/A   Clear
3:53 AM 55.9 °F 37.9 °F 51% 29.78 in 10.0 mi SSW 3.5 mph - N/A   Clear
4:53 AM 53.1 °F 37.0 °F 55% 29.81 in 10.0 mi Calm Calm - N/A   Clear
5:53 AM 48.0 °F 35.1 °F 61% 29.84 in 10.0 mi WNW 5.8 mph - N/A   Clear
6:53 AM 55.4 °F 39.2 °F 54% 30.00 in 10.0 mi WNW 3.5 mph - N/A   Clear
7:53 AM 60.1 °F 39.0 °F 46% 29.86 in 10.0 mi Calm Calm - N/A   Clear
8:53 AM 63.0 °F 39.9 °F 43% 29.87 in 10.0 mi Calm Calm - N/A   Clear
9:53 AM 66.0 °F 39.9 °F 38% 29.86 in 10.0 mi ESE 3.5 mph - N/A   Clear
10:53 AM 69.1 °F 41.0 °F 36% 29.83 in 10.0 mi South 3.5 mph - N/A   Clear
11:53 AM 75.0 °F 39.9 °F 28% 29.81 in 10.0 mi SE 12.7 mph 19.6 mph N/A   Clear
12:53 PM 77.0 °F 39.9 °F 26% 29.78 in 10.0 mi SE 15.0 mph 23.0 mph N/A   Clear
1:53 PM 79.0 °F 36.0 °F 21% 29.74 in 10.0 mi SE 12.7 mph - N/A   Clear
2:53 PM 80.1 °F 36.0 °F 20% 29.72 in 10.0 mi ESE 13.8 mph 19.6 mph N/A   Clear
3:53 PM 82.9 °F 36.0 °F 19% 29.68 in 10.0 mi SE 16.1 mph 24.2 mph N/A   Clear
4:53 PM 82.9 °F 36.0 °F 19% 29.67 in 10.0 mi ESE 17.3 mph 25.3 mph N/A   Clear
5:53 PM 81.0 °F 37.0 °F 21% 29.68 in 10.0 mi SE 20.7 mph 34.5 mph N/A   Clear
6:53 PM 77.0 °F 37.9 °F 24% 29.67 in 10.0 mi SE 21.9 mph 28.8 mph N/A   Clear
7:53 PM 72.0 °F 39.9 °F 31% 29.69 in 10.0 mi ESE 17.3 mph 29.9 mph N/A   Clear
8:53 PM 66.9 °F 39.0 °F 36% 29.71 in 10.0 mi East 11.5 mph - N/A   Clear
9:50 PM 66.2 °F 39.2 °F 37% 29.87 in 10.0 mi South 5.8 mph - N/A   Clear
9:53 PM 66.0 °F 39.9 °F 38% 29.72 in 10.0 mi South 5.8 mph - N/A   Clear
10:53 PM 64.0 °F 39.0 °F 40% 29.72 in 10.0 mi WSW 3.5 mph - N/A   Clear
11:53 PM 60.1 °F 39.0 °F 46% 29.72 in 10.0 mi SSW 6.9 mph - N/A   Clear